Time,TemperatureF,DewpointF,PressureIn,WindDirection,WindDirectionDegrees,WindSpeedMPH,WindSpeedGustMPH,Humidity,HourlyPrecipIn,Conditions,Clouds,dailyrainin,SoftwareType,DateUTC
2013-01-13 00:05:00,27.9,26.0,29.92,NW,313,3.0,4.0,93,0.00,,,0.19,weatherlink.com 1.10,2013-01-13 06:05:00,
2013-01-13 00:20:00,27.3,25.0,29.92,NNW,340,6.0,10.0,92,0.00,,,0.19,weatherlink.com 1.10,2013-01-13 06:20:00,
2013-01-13 00:35:00,26.9,25.0,29.93,NW,315,5.0,7.0,92,0.00,,,0.19,weatherlink.com 1.10,2013-01-13 06:35:00,
2013-01-13 00:51:00,26.8,25.0,29.96,WNW,293,3.0,7.0,92,0.00,,,0.19,weatherlink.com 1.10,2013-01-13 06:51:00,
2013-01-13 01:05:00,26.4,24.0,29.97,NW,318,4.0,7.0,92,0.00,,,0.00,weatherlink.com 1.10,2013-01-13 07:05:00,
2013-01-13 01:20:00,26.0,24.0,29.95,NNE,27,6.0,10.0,91,0.00,,,0.00,weatherlink.com 1.10,2013-01-13 07:20:00,
2013-01-13 01:35:00,25.8,24.0,29.95,NW,306,6.0,7.0,91,0.00,,,0.00,weatherlink.com 1.10,2013-01-13 07:35:00,
2013-01-13 01:50:00,25.7,24.0,29.95,NNW,332,3.0,7.0,92,0.00,,,0.00,weatherlink.com 1.10,2013-01-13 07:50:00,
2013-01-13 02:05:00,25.5,23.0,29.95,NNW,330,5.0,11.0,91,0.00,,,0.00,weatherlink.com 1.10,2013-01-13 08:05:00,
2013-01-13 02:20:00,25.4,23.0,29.95,ENE,60,2.0,7.0,91,0.00,,,0.00,weatherlink.com 1.10,2013-01-13 08:20:00,
2013-01-13 02:35:00,25.3,23.0,29.98,WNW,284,2.0,10.0,91,0.00,,,0.00,weatherlink.com 1.10,2013-01-13 08:35:00,
2013-01-13 02:50:00,24.8,22.0,29.98,NW,305,4.0,8.0,90,0.00,,,0.00,weatherlink.com 1.10,2013-01-13 08:50:00,
2013-01-13 03:05:00,24.4,22.0,30.00,WNW,297,4.0,10.0,89,0.00,,,0.00,weatherlink.com 1.10,2013-01-13 09:05:00,
2013-01-13 03:20:00,24.0,21.0,30.03,NW,305,7.0,11.0,89,0.00,,,0.00,weatherlink.com 1.10,2013-01-13 09:20:00,
2013-01-13 03:35:00,23.8,21.0,30.04,NNW,331,8.0,10.0,89,0.00,,,0.00,weatherlink.com 1.10,2013-01-13 09:35:00,
2013-01-13 03:50:00,23.5,21.0,30.03,NW,325,5.0,12.0,89,0.00,,,0.00,weatherlink.com 1.10,2013-01-13 09:50:00,
2013-01-13 04:05:00,23.1,21.0,30.02,NW,321,1.0,8.0,90,0.00,,,0.00,weatherlink.com 1.10,2013-01-13 10:05:00,
2013-01-13 04:20:00,22.7,20.0,30.02,NW,309,4.0,10.0,88,0.00,,,0.00,weatherlink.com 1.10,2013-01-13 10:20:00,
2013-01-13 04:35:00,22.3,19.0,30.02,WNW,299,8.0,10.0,88,0.00,,,0.00,weatherlink.com 1.10,2013-01-13 10:35:00,
2013-01-13 04:50:00,22.1,19.0,30.02,NW,321,6.0,9.0,88,0.00,,,0.00,weatherlink.com 1.10,2013-01-13 10:50:00,
2013-01-13 05:05:00,22.0,19.0,30.01,WNW,297,4.0,10.0,89,0.00,,,0.00,weatherlink.com 1.10,2013-01-13 11:05:00,
2013-01-13 05:20:00,21.9,20.0,30.00,NW,316,5.0,11.0,90,0.00,,,0.00,weatherlink.com 1.10,2013-01-13 11:20:00,
2013-01-13 05:35:00,21.9,19.0,30.04,NW,308,10.0,11.0,89,0.00,,,0.00,weatherlink.com 1.10,2013-01-13 11:35:00,
2013-01-13 05:50:00,21.6,19.0,30.04,NNW,328,3.0,9.0,88,0.00,,,0.00,weatherlink.com 1.10,2013-01-13 11:50:00,
2013-01-13 06:06:00,21.4,18.0,30.08,WNW,297,4.0,6.0,88,0.00,,,0.00,weatherlink.com 1.10,2013-01-13 12:06:00,
2013-01-13 06:21:00,21.1,18.0,30.06,NNW,329,5.0,6.0,87,0.00,,,0.00,weatherlink.com 1.10,2013-01-13 12:21:00,
2013-01-13 06:36:00,21.1,18.0,30.10,NW,314,5.0,5.0,88,0.00,,,0.00,weatherlink.com 1.10,2013-01-13 12:36:00,
2013-01-13 06:51:00,21.0,18.0,30.10,West,277,1.0,4.0,88,0.00,,,0.00,weatherlink.com 1.10,2013-01-13 12:51:00,
2013-01-13 07:06:00,20.9,18.0,30.07,WNW,301,1.0,6.0,87,0.00,,,0.00,weatherlink.com 1.10,2013-01-13 13:06:00,
2013-01-13 07:21:00,20.8,17.0,30.11,NW,325,4.0,9.0,85,0.00,,,0.00,weatherlink.com 1.10,2013-01-13 13:21:00,
2013-01-13 07:36:00,20.7,17.0,30.11,WNW,294,5.0,6.0,87,0.00,,,0.00,weatherlink.com 1.10,2013-01-13 13:36:00,
2013-01-13 07:51:00,20.8,18.0,30.13,NW,305,6.0,7.0,87,0.00,,,0.00,weatherlink.com 1.10,2013-01-13 13:51:00,
2013-01-13 08:06:00,20.7,17.0,30.12,West,260,3.0,9.0,86,0.00,,,0.00,weatherlink.com 1.10,2013-01-13 14:06:00,
2013-01-13 08:21:00,20.6,17.0,30.11,WNW,301,6.0,8.0,86,0.00,,,0.00,weatherlink.com 1.10,2013-01-13 14:21:00,
2013-01-13 08:36:00,20.4,17.0,30.11,NNW,332,3.0,10.0,86,0.00,,,0.00,weatherlink.com 1.10,2013-01-13 14:36:00,
2013-01-13 08:51:00,20.2,17.0,30.11,West,274,6.0,10.0,86,0.00,,,0.00,weatherlink.com 1.10,2013-01-13 14:51:00,
2013-01-13 09:06:00,20.0,16.0,30.10,NNW,327,5.0,11.0,85,0.00,,,0.00,weatherlink.com 1.10,2013-01-13 15:06:00,
2013-01-13 09:21:00,19.9,17.0,30.08,NW,325,4.0,10.0,87,0.00,,,0.00,weatherlink.com 1.10,2013-01-13 15:21:00,
2013-01-13 09:36:00,19.8,16.0,30.11,WNW,290,5.0,11.0,85,0.00,,,0.00,weatherlink.com 1.10,2013-01-13 15:36:00,
2013-01-13 09:51:00,19.8,16.0,30.11,WNW,302,6.0,10.0,85,0.00,,,0.00,weatherlink.com 1.10,2013-01-13 15:51:00,
2013-01-13 10:06:00,19.6,16.0,30.12,NNW,329,9.0,10.0,85,0.00,,,0.00,weatherlink.com 1.10,2013-01-13 16:06:00,
2013-01-13 10:21:00,19.4,16.0,30.12,WNW,290,6.0,12.0,86,0.00,,,0.00,weatherlink.com 1.10,2013-01-13 16:21:00,
2013-01-13 10:36:00,19.5,16.0,30.15,NW,305,3.0,11.0,87,0.00,,,0.00,weatherlink.com 1.10,2013-01-13 16:36:00,
2013-01-13 10:51:00,19.4,16.0,30.14,NNW,332,6.0,10.0,87,0.00,,,0.00,weatherlink.com 1.10,2013-01-13 16:51:00,
2013-01-13 11:06:00,19.3,16.0,30.17,WNW,293,4.0,9.0,87,0.00,,,0.00,weatherlink.com 1.10,2013-01-13 17:06:00,
2013-01-13 11:21:00,19.2,16.0,30.17,WNW,295,5.0,7.0,87,0.00,,,0.00,weatherlink.com 1.10,2013-01-13 17:21:00,
2013-01-13 11:36:00,18.7,15.0,30.14,West,276,6.0,10.0,86,0.00,,,0.00,weatherlink.com 1.10,2013-01-13 17:36:00,
2013-01-13 11:51:00,18.4,15.0,30.13,West,279,6.0,10.0,86,0.00,,,0.00,weatherlink.com 1.10,2013-01-13 17:51:00,
2013-01-13 12:06:00,18.1,14.0,30.12,WNW,301,6.0,11.0,84,0.00,,,0.00,weatherlink.com 1.10,2013-01-13 18:06:00,
2013-01-13 12:21:00,18.1,14.0,30.12,WNW,288,9.0,13.0,84,0.00,,,0.00,weatherlink.com 1.10,2013-01-13 18:21:00,
2013-01-13 12:36:00,18.3,14.0,30.13,NW,305,12.0,13.0,82,0.00,,,0.00,weatherlink.com 1.10,2013-01-13 18:36:00,
2013-01-13 12:52:00,18.2,14.0,30.12,WNW,282,5.0,12.0,83,0.00,,,0.00,weatherlink.com 1.10,2013-01-13 18:52:00,
2013-01-13 13:07:00,18.8,15.0,30.13,WSW,255,10.0,11.0,84,0.00,,,0.00,weatherlink.com 1.10,2013-01-13 19:07:00,
2013-01-13 13:22:00,19.0,15.0,30.13,WNW,289,7.0,11.0,83,0.00,,,0.00,weatherlink.com 1.10,2013-01-13 19:22:00,
2013-01-13 13:37:00,19.6,15.0,30.13,NW,307,6.0,12.0,83,0.00,,,0.00,weatherlink.com 1.10,2013-01-13 19:37:00,
2013-01-13 13:52:00,19.4,15.0,30.14,WNW,302,9.0,11.0,83,0.00,,,0.00,weatherlink.com 1.10,2013-01-13 19:52:00,
2013-01-13 14:07:00,19.4,15.0,30.14,NW,305,7.0,13.0,83,0.00,,,0.00,weatherlink.com 1.10,2013-01-13 20:07:00,
2013-01-13 14:22:00,20.0,17.0,30.15,WNW,292,3.0,11.0,86,0.00,,,0.00,weatherlink.com 1.10,2013-01-13 20:22:00,
2013-01-13 14:37:00,20.3,16.0,30.16,WNW,291,7.0,11.0,84,0.00,,,0.00,weatherlink.com 1.10,2013-01-13 20:37:00,
2013-01-13 14:52:00,20.9,17.0,30.18,West,274,12.0,12.0,83,0.00,,,0.00,weatherlink.com 1.10,2013-01-13 20:52:00,
2013-01-13 15:07:00,20.2,15.0,30.19,West,270,6.0,13.0,79,0.00,,,0.00,weatherlink.com 1.10,2013-01-13 21:07:00,
2013-01-13 15:22:00,20.3,15.0,30.20,WNW,293,9.0,12.0,79,0.00,,,0.00,weatherlink.com 1.10,2013-01-13 21:22:00,
2013-01-13 15:37:00,20.1,15.0,30.22,NW,315,7.0,11.0,79,0.00,,,0.00,weatherlink.com 1.10,2013-01-13 21:37:00,
2013-01-13 15:52:00,19.9,15.0,30.23,North,354,3.0,10.0,80,0.00,,,0.00,weatherlink.com 1.10,2013-01-13 21:52:00,
2013-01-13 16:07:00,19.9,15.0,30.23,WNW,295,3.0,9.0,82,0.00,,,0.00,weatherlink.com 1.10,2013-01-13 22:07:00,
2013-01-13 16:22:00,19.6,15.0,30.25,WNW,288,5.0,7.0,81,0.00,,,0.00,weatherlink.com 1.10,2013-01-13 22:22:00,
2013-01-13 16:37:00,19.7,15.0,30.25,WNW,293,2.0,8.0,80,0.00,,,0.00,weatherlink.com 1.10,2013-01-13 22:37:00,
2013-01-13 16:52:00,19.5,15.0,30.26,WNW,297,3.0,7.0,81,0.00,,,0.00,weatherlink.com 1.10,2013-01-13 22:52:00,
2013-01-13 17:07:00,19.2,14.0,30.27,WNW,287,1.0,6.0,81,0.00,,,0.00,weatherlink.com 1.10,2013-01-13 23:07:00,
2013-01-13 17:22:00,18.9,14.0,30.27,West,278,2.0,4.0,82,0.00,,,0.00,weatherlink.com 1.10,2013-01-13 23:22:00,
2013-01-13 17:37:00,18.6,14.0,30.28,WNW,288,1.0,3.0,82,0.00,,,0.00,weatherlink.com 1.10,2013-01-13 23:37:00,
2013-01-13 17:52:00,18.3,14.0,30.28,West,281,1.0,2.0,84,0.00,,,0.00,weatherlink.com 1.10,2013-01-13 23:52:00,
2013-01-13 18:07:00,18.2,14.0,30.28,West,281,3.0,4.0,83,0.00,,,0.00,weatherlink.com 1.10,2013-01-14 00:07:00,
2013-01-13 18:22:00,18.2,14.0,30.29,West,278,2.0,5.0,82,0.00,,,0.00,weatherlink.com 1.10,2013-01-14 00:22:00,
2013-01-13 18:37:00,18.0,14.0,30.29,WNW,284,2.0,3.0,83,0.00,,,0.00,weatherlink.com 1.10,2013-01-14 00:37:00,
2013-01-13 18:52:00,17.8,14.0,30.30,West,265,1.0,1.0,84,0.00,,,0.00,weatherlink.com 1.10,2013-01-14 00:52:00,
2013-01-13 19:07:00,17.6,14.0,30.31,West,281,1.0,3.0,85,0.00,,,0.00,weatherlink.com 1.10,2013-01-14 01:07:00,
2013-01-13 19:22:00,17.6,14.0,30.31,West,281,2.0,4.0,85,0.00,,,0.00,weatherlink.com 1.10,2013-01-14 01:22:00,
2013-01-13 19:37:00,17.6,14.0,30.31,WNW,284,2.0,3.0,84,0.00,,,0.00,weatherlink.com 1.10,2013-01-14 01:37:00,
2013-01-13 19:52:00,17.4,13.0,30.30,NW,304,2.0,4.0,84,0.00,,,0.00,weatherlink.com 1.10,2013-01-14 01:52:00,
2013-01-13 20:07:00,17.3,13.0,30.30,WNW,286,1.0,4.0,84,0.00,,,0.00,weatherlink.com 1.10,2013-01-14 02:07:00,
2013-01-13 20:22:00,17.1,13.0,30.31,WNW,287,2.0,3.0,84,0.00,,,0.00,weatherlink.com 1.10,2013-01-14 02:22:00,
2013-01-13 20:37:00,17.1,13.0,30.31,West,278,1.0,3.0,84,0.00,,,0.00,weatherlink.com 1.10,2013-01-14 02:37:00,
2013-01-13 20:52:00,17.1,13.0,30.31,WNW,289,2.0,5.0,84,0.00,,,0.00,weatherlink.com 1.10,2013-01-14 02:52:00,
2013-01-13 21:07:00,16.8,13.0,30.31,NW,306,2.0,4.0,85,0.00,,,0.00,weatherlink.com 1.10,2013-01-14 03:07:00,
2013-01-13 21:22:00,16.8,13.0,30.32,WNW,282,2.0,4.0,84,0.00,,,0.00,weatherlink.com 1.10,2013-01-14 03:22:00,
2013-01-13 21:37:00,16.6,13.0,30.32,West,273,1.0,3.0,84,0.00,,,0.00,weatherlink.com 1.10,2013-01-14 03:37:00,
2013-01-13 21:52:00,16.4,12.0,30.33,WSW,256,1.0,2.0,84,0.00,,,0.00,weatherlink.com 1.10,2013-01-14 03:52:00,
2013-01-13 22:07:00,16.3,12.0,30.34,West,280,0.0,1.0,84,0.00,,,0.00,weatherlink.com 1.10,2013-01-14 04:07:00,
2013-01-13 22:22:00,15.9,12.0,30.34,SW,236,1.0,1.0,85,0.00,,,0.00,weatherlink.com 1.10,2013-01-14 04:22:00,
2013-01-13 22:38:00,15.8,12.0,30.35,West,265,0.0,1.0,86,0.00,,,0.00,weatherlink.com 1.10,2013-01-14 04:38:00,
2013-01-13 22:53:00,16.1,12.0,30.35,West,277,1.0,1.0,85,0.00,,,0.00,weatherlink.com 1.10,2013-01-14 04:53:00,
2013-01-13 23:08:00,15.8,12.0,30.36,WSW,250,1.0,1.0,85,0.00,,,0.00,weatherlink.com 1.10,2013-01-14 05:08:00,
2013-01-13 23:23:00,15.5,12.0,30.37,West,260,1.0,2.0,86,0.00,,,0.00,weatherlink.com 1.10,2013-01-14 05:23:00,
2013-01-13 23:38:00,15.4,12.0,30.39,WSW,242,1.0,2.0,86,0.00,,,0.00,weatherlink.com 1.10,2013-01-14 05:38:00,
2013-01-13 23:53:00,15.2,12.0,30.40,SW,235,1.0,1.0,87,0.00,,,0.00,weatherlink.com 1.10,2013-01-14 05:53:00,